EW9322 Weather Reports


Display with metric or nautical units.
time (UTC)temp
F
wind
direction
speed
MPH
gust
MPH
rain 1hr
in
rain 24hr
in
rain mn
in
humidity
%
barometer
mb
20260507165758 59 227 3.0 8.0 0.00 0.00 0.00 53 1022.9
20260507165754 60 247 3.0 8.0 0.00 0.00 0.00 52 1022.8
20260507164755 59 189 3.0 7.0 0.00 0.00 0.00 54 1022.9
20260507164300 58 284 2.0 6.0 0.00 0.00 0.00 55 1023.0
20260507164254 58 298 3.0 7.0 0.00 0.00 0.00 55 1023.0
20260507163254 58 213 2.0 9.0 0.00 0.00 0.00 55 1023.3
20260507162754 58 259 2.0 9.0 0.00 0.00 0.00 56 1023.3
20260507162255 58 251 2.0 6.0 0.00 0.00 0.00 57 1023.4
20260507161755 57 188 2.0 6.0 0.00 0.00 0.00 57 1023.4
20260507161301 56 266 2.0 6.0 0.00 0.00 0.00 58 1023.4
20260507161257 57 130 2.0 4.0 0.00 0.00 0.00 58 1023.4
20260507160255 56 171 3.0 6.0 0.00 0.00 0.00 58 1023.5
20260507155753 56 242 2.0 6.0 0.00 0.00 0.00 58 1023.6
20260507155253 56 172 2.0 5.0 0.00 0.00 0.00 60 1023.6
20260507154750 55 276 2.0 4.0 0.00 0.00 0.00 61 1023.7
20260507154250 54 239 2.0 4.0 0.00 0.00 0.00 62 1023.8
20260507153748 54 305 2.0 5.0 0.00 0.00 0.00 64 1023.8
20260507153246 53 246 2.0 5.0 0.00 0.00 0.00 67 1023.8
20260507152746 53 270 1.0 6.0 0.00 0.00 0.00 69 1023.8
20260507152246 52 196 1.0 6.0 0.00 0.00 0.00 71 1023.9
20260507151751 50 256 1.0 6.0 0.00 0.00 0.00 78 1023.9
20260507151747 51 178 1.0 6.0 0.00 0.00 0.00 75 1023.9
20260507151245 49 246 1.0 4.0 0.00 0.00 0.00 81 1024.0
20260507150855 49 291 2.0 6.0 0.00 0.00 0.00 84 1024.0
20260507150353 48 299 2.0 6.0 0.00 0.00 0.00 85 1024.0
20260507145240 47 266 1.0 4.0 0.00 0.00 0.00 86 1024.0
20260507144743 47 290 1.0 3.0 0.00 0.00 0.00 88 1024.0
20260507144738 46 291 2.0 4.0 0.00 0.00 0.00 88 1024.0
20260507143736 46 268 2.0 4.0 0.00 0.00 0.00 89 1024.1
20260507143240 45 295 2.0 4.0 0.00 0.00 0.00 90 1024.3
20260507143236 46 284 2.0 4.0 0.00 0.00 0.00 90 1024.3
20260507142237 45 292 2.0 4.0 0.00 0.00 0.00 90 1024.3
20260507141736 44 77 2.0 4.0 0.00 0.00 0.00 90 1024.3
20260507141237 44 284 2.0 6.0 0.00 0.00 0.00 90 1024.5
20260507140735 44 283 2.0 6.0 0.00 0.00 0.00 91 1024.4
20260507140234 43 284 2.0 4.0 0.00 0.00 0.00 91 1024.4
20260507135738 43 259 2.0 4.0 0.00 0.00 0.00 91 1024.5
20260507135734 43 278 1.0 4.0 0.00 0.00 0.00 91 1024.5
20260507135234 43 270 1.0 4.0 0.00 0.00 0.00 91 1024.5
20260507134234 43 279 2.0 4.0 0.00 0.00 0.00 91 1024.5
20260507133734 42 295 1.0 3.0 0.00 0.00 0.00 91 1024.5
20260507133234 42 355 2.0 4.0 0.00 0.00 0.00 91 1024.5
20260507132734 42 284 1.0 4.0 0.00 0.00 0.00 91 1024.5
20260507132239 42 273 2.0 4.0 0.00 0.00 0.00 90 1024.5
20260507132234 42 284 2.0 4.0 0.00 0.00 0.00 90 1024.5
20260507131845 42 323 1.0 3.0 0.00 0.00 0.00 90 1024.5
20260507130734 41 315 1.0 3.0 0.00 0.00 0.00 91 1024.5
20260507130233 41 292 1.0 3.0 0.00 0.00 0.00 90 1024.4
20260507125732 41 267 1.0 3.0 0.00 0.00 0.00 90 1024.4
20260507125232 40 295 1.0 3.0 0.00 0.00 0.00 90 1024.3
20260507124733 40 288 1.0 6.0 0.00 0.00 0.00 90 1024.3
20260507124233 40 271 2.0 6.0 0.00 0.00 0.00 90 1024.3
20260507123732 40 293 1.0 5.0 0.00 0.00 0.00 90 1024.3
20260507123232 39 310 0.0 2.0 0.00 0.00 0.00 89 1024.1
20260507122732 39 310 0.0 2.0 0.00 0.00 0.00 89 1024.0
20260507122228 39 310 0.0 2.0 0.00 0.00 0.00 89 1024.0
20260507121728 39 310 0.0 2.0 0.00 0.00 0.00 89 1024.0
20260507121230 39 310 0.0 1.0 0.00 0.00 0.00 89 1024.0
20260507120728 39 310 0.0 1.0 0.00 0.00 0.00 89 1023.9
20260507120228 39 310 0.0 1.0 0.00 0.00 0.00 89 1023.9
20260507115729 39 310 0.0 0.0 0.00 0.00 0.00 88 1023.9
20260507115233 39 310 0.0 0.0 0.00 0.00 0.00 88 1023.9
20260507115228 39 310 0.0 0.0 0.00 0.00 0.00 88 1023.8
20260507114230 39 310 0.0 1.0 0.00 0.00 0.00 88 1023.8
20260507113734 39 310 0.0 1.0 0.00 0.00 0.00 88 1023.8
20260507113729 39 310 0.0 1.0 0.00 0.00 0.00 88 1023.8
20260507113229 39 310 0.0 1.0 0.00 0.00 0.00 88 1023.8
20260507112226 39 309 0.0 2.0 0.00 0.00 0.00 88 1023.8
20260507111730 39 325 0.0 1.0 0.00 0.00 0.00 88 1024.0
20260507111726 39 309 0.0 2.0 0.00 0.00 0.00 88 1023.9
20260507110726 39 355 0.0 1.0 0.00 0.00 0.00 88 1024.0
20260507110227 39 355 0.0 1.0 0.00 0.00 0.00 87 1023.9
20260507105731 40 355 0.0 0.0 0.00 0.00 0.00 87 1023.9
20260507105727 39 355 0.0 1.0 0.00 0.00 0.00 87 1023.9
20260507104726 40 355 0.0 0.0 0.00 0.00 0.00 87 1023.9
20260507104226 40 355 0.0 0.0 0.00 0.00 0.00 86 1023.8
20260507103726 40 355 0.0 0.0 0.00 0.00 0.00 87 1023.9
20260507103224 40 355 0.0 0.0 0.00 0.00 0.00 87 1023.9
20260507102724 40 355 0.0 0.0 0.00 0.00 0.00 87 1024.0
20260507102224 40 355 0.0 0.0 0.00 0.00 0.00 86 1023.9
20260507101725 40 355 0.0 0.0 0.00 0.00 0.00 86 1023.8
20260507101223 40 355 0.0 0.0 0.00 0.00 0.00 86 1023.8
20260507100723 40 355 0.0 0.0 0.00 0.00 0.00 85 1023.8
20260507100225 40 355 0.0 0.0 0.00 0.00 0.00 85 1023.9
20260507095725 40 355 0.0 0.0 0.00 0.00 0.00 85 1023.8
20260507095224 41 355 0.0 0.0 0.00 0.00 0.00 85 1024.0
20260507094723 41 355 0.0 0.0 0.00 0.00 0.00 85 1024.0
20260507094227 41 355 0.0 2.0 0.00 0.00 0.00 84 1023.9
20260507094223 41 355 0.0 0.0 0.00 0.00 0.00 84 1024.0
20260507093721 41 355 0.0 0.0 0.00 0.00 0.00 84 1023.9
20260507093332 42 355 1.0 2.0 0.00 0.00 0.00 82 1023.9
20260507092723 42 355 0.0 2.0 0.00 0.00 0.00 83 1024.0
20260507092221 42 355 1.0 2.0 0.00 0.00 0.00 83 1024.0
20260507091221 42 355 1.0 2.0 0.00 0.00 0.00 82 1023.9
20260507090723 43 26 0.0 2.0 0.00 0.00 0.00 81 1023.8
20260507090222 43 121 0.0 2.0 0.00 0.00 0.00 81 1023.8
20260507085725 43 121 0.0 0.0 0.00 0.00 0.00 80 1023.8
20260507085719 43 121 0.0 2.0 0.00 0.00 0.00 80 1023.8
20260507084720 44 121 0.0 0.0 0.00 0.00 0.00 80 1023.7
20260507084221 44 121 0.0 0.0 0.00 0.00 0.00 80 1023.6
20260507083717 44 121 0.0 0.0 0.00 0.00 0.00 79 1023.6
20260507083219 44 121 0.0 0.0 0.00 0.00 0.00 79 1023.6
20260507082718 44 121 0.0 0.0 0.00 0.00 0.00 79 1023.5
20260507082219 44 121 0.0 0.0 0.00 0.00 0.00 79 1023.5
20260507081719 44 121 0.0 0.0 0.00 0.00 0.00 79 1023.4
20260507081222 44 121 0.0 2.0 0.00 0.00 0.00 79 1023.4
20260507081218 44 121 0.0 2.0 0.00 0.00 0.00 79 1023.4
20260507080829 44 121 0.0 2.0 0.00 0.00 0.00 79 1023.5
20260507075717 44 121 0.0 1.0 0.00 0.00 0.00 79 1023.4
20260507075223 44 121 1.0 4.0 0.00 0.00 0.00 79 1023.1
20260507075217 44 121 0.0 4.0 0.00 0.00 0.00 79 1023.3
20260507074215 44 74 1.0 7.0 0.00 0.00 0.00 79 1023.0
20260507073714 44 77 1.0 7.0 0.00 0.00 0.00 79 1023.3
20260507073217 45 11 0.0 2.0 0.00 0.00 0.00 80 1023.8
20260507073213 44 92 1.0 6.0 0.00 0.00 0.00 80 1023.5
20260507072219 45 327 0.0 2.0 0.00 0.00 0.00 79 1024.5
20260507072214 44 355 0.0 2.0 0.00 0.00 0.00 79 1024.6
20260507071212 45 327 0.0 2.0 0.00 0.00 0.00 78 1024.7
20260507070712 45 9 0.0 3.0 0.00 0.00 0.00 78 1024.5
20260507070211 45 9 0.0 3.0 0.00 0.00 0.00 78 1024.6
20260507065708 45 346 0.0 1.0 0.00 0.00 0.00 78 1024.7
20260507065213 45 13 0.0 2.0 0.00 0.00 0.00 78 1024.7
20260507065207 45 13 0.0 1.0 0.00 0.00 0.00 78 1024.7
20260507064209 45 13 0.0 2.0 0.00 0.00 0.00 78 1024.7
20260507063707 45 65 0.0 2.0 0.00 0.00 0.00 77 1024.6
20260507063207 45 24 0.0 2.0 0.00 0.00 0.00 77 1024.6
20260507062703 45 27 0.0 3.0 0.00 0.00 0.00 77 1024.8
20260507062203 46 331 0.0 3.0 0.00 0.00 0.00 78 1024.8
20260507061703 46 355 1.0 4.0 0.00 0.00 0.00 78 1024.9
20260507061203 46 5 0.0 4.0 0.00 0.00 0.00 78 1024.9
20260507060708 46 36 0.0 2.0 0.00 0.00 0.00 77 1024.8
20260507060703 46 336 0.0 2.0 0.00 0.00 0.00 77 1024.8
20260507055705 46 36 0.0 2.0 0.00 0.00 0.00 76 1024.5
20260507055203 46 13 0.0 2.0 0.00 0.00 0.00 75 1024.3
20260507054704 46 348 0.0 2.0 0.00 0.00 0.00 75 1024.1
20260507054204 46 300 1.0 3.0 0.00 0.00 0.00 74 1023.9
20260507053709 46 355 1.0 2.0 0.00 0.00 0.00 74 1023.6
20260507053704 46 72 1.0 3.0 0.00 0.00 0.00 74 1023.7
20260507052704 46 332 1.0 2.0 0.00 0.00 0.00 74 1023.9
20260507052206 46 340 1.0 4.0 0.00 0.00 0.00 73 1024.0
20260507052201 46 0 1.0 4.0 0.00 0.00 0.00 72 1023.9
20260507051200 46 17 2.0 4.0 0.00 0.00 0.00 72 1024.0
20260507050705 46 351 1.0 4.0 0.00 0.00 0.00 70 1023.9
20260507050701 46 350 1.0 4.0 0.00 0.00 0.00 71 1023.9
20260507045657 47 355 1.0 4.0 0.00 0.00 0.00 70 1023.9
20260507045158 47 25 1.0 3.0 0.00 0.00 0.00 70 1023.8
20260507044700 47 12 1.0 4.0 0.00 0.00 0.00 70 1023.6
20260507044656 46 40 1.0 4.0 0.00 0.00 0.00 70 1023.7
20260507043656 46 15 1.0 3.0 0.00 0.00 0.00 71 1023.6
20260507043156 47 106 1.0 3.0 0.00 0.00 0.00 71 1023.5
20260507042657 47 355 1.0 3.0 0.00 0.00 0.00 71 1023.1
20260507042154 47 323 1.0 3.0 0.00 0.00 0.00 71 1023.1
20260507041654 47 18 1.0 3.0 0.00 0.00 0.00 71 1023.5
20260507041152 47 40 1.0 3.0 0.00 0.00 0.00 71 1023.5
20260507040652 47 36 1.0 4.0 0.00 0.00 0.00 71 1023.3
20260507040152 47 294 1.0 4.0 0.00 0.00 0.00 70 1023.0
20260507035652 48 79 1.0 3.0 0.00 0.00 0.00 70 1022.8
20260507035152 48 24 2.0 3.0 0.00 0.00 0.00 70 1022.7
20260507034652 48 53 1.0 4.0 0.00 0.00 0.00 70 1022.6
20260507034152 48 9 1.0 4.0 0.00 0.00 0.00 70 1022.6
20260507033654 48 348 1.0 4.0 0.00 0.00 0.00 70 1022.7
20260507033151 49 5 2.0 4.0 0.00 0.01 0.00 70 1022.6
20260507032649 49 20 1.0 3.0 0.00 0.01 0.00 69 1022.5
20260507032149 49 15 1.0 3.0 0.00 0.01 0.00 69 1022.6
20260507031649 50 5 1.0 4.0 0.00 0.01 0.00 69 1022.5
20260507031150 50 11 2.0 4.0 0.00 0.01 0.00 69 1022.4
20260507030650 51 9 2.0 4.0 0.00 0.01 0.00 69 1022.4
20260507030153 51 346 2.0 5.0 0.00 0.01 0.00 68 1022.0
20260507030149 51 355 2.0 5.0 0.00 0.01 0.00 68 1022.1
20260507025150 52 15 2.0 4.0 0.00 0.01 0.00 67 1022.1
20260507024649 52 5 2.0 4.0 0.00 0.01 0.00 65 1021.9
20260507024150 53 19 2.0 5.0 0.00 0.01 0.00 63 1021.8
20260507023650 54 16 2.0 5.0 0.00 0.01 0.00 61 1021.6
20260507023150 55 344 2.0 4.0 0.00 0.01 0.00 59 1021.1
20260507022650 56 31 2.0 4.0 0.00 0.01 0.00 56 1020.7
20260507022149 57 54 1.0 6.0 0.00 0.01 0.00 55 1020.8
20260507021650 57 284 1.0 6.0 0.00 0.01 0.00 52 1021.0
20260507021154 57 355 2.0 5.0 0.00 0.01 0.00 50 1020.5
20260507021150 57 17 2.0 5.0 0.00 0.01 0.00 50 1020.8
20260507020149 57 17 2.0 4.0 0.00 0.01 0.00 50 1020.3
20260507015650 57 65 2.0 4.0 0.00 0.01 0.00 50 1019.9
20260507015150 57 79 2.0 6.0 0.00 0.01 0.00 50 1019.4
20260507014650 58 54 2.0 6.0 0.00 0.01 0.00 49 1019.3
20260507014147 58 24 2.0 4.0 0.00 0.01 0.00 49 1019.2
20260507013649 58 46 2.0 6.0 0.00 0.01 0.00 49 1019.1
20260507013145 58 42 3.0 7.0 0.00 0.01 0.00 49 1018.8
20260507012645 58 69 3.0 7.0 0.00 0.02 0.00 48 1018.4
20260507012150 58 76 3.0 7.0 0.00 0.02 0.00 48 1018.2
20260507012144 59 63 3.0 9.0 0.00 0.02 0.00 48 1018.0
20260507011756 59 67 3.0 9.0 0.00 0.02 0.00 48 1017.9
20260507010641 59 67 3.0 7.0 0.00 0.02 0.00 48 1017.5
20260507010139 59 65 3.0 11.0 0.00 0.02 0.00 47 1017.2
20260507005639 60 62 4.0 11.0 0.00 0.02 0.00 47 1017.0
20260507005143 60 66 3.0 12.0 0.00 0.02 0.00 46 1016.9
20260507005139 60 78 4.0 12.0 0.00 0.02 0.00 46 1017.0
20260507004752 60 67 2.0 7.0 0.00 0.02 0.00 46 1016.8
20260507004251 61 63 3.0 13.0 0.00 0.02 0.00 45 1016.8
20260507003139 61 47 3.0 13.0 0.00 0.02 0.00 45 1016.8
20260507002640 61 96 3.0 10.0 0.00 0.02 0.00 44 1016.8
20260507002137 62 71 3.0 9.0 0.00 0.02 0.00 44 1016.8
20260507001637 62 69 4.0 14.0 0.00 0.02 0.00 43 1016.4
20260507001142 62 94 3.0 12.0 0.00 0.02 0.00 43 1016.4
20260507001138 62 65 4.0 14.0 0.00 0.02 0.00 43 1016.4
20260507000749 63 70 3.0 8.0 0.00 0.02 0.00 43 1016.3
20260506235637 63 64 4.0 12.0 0.00 0.02 0.00 42 1016.0
20260506235137 63 63 4.0 12.0 0.00 0.02 0.00 42 1016.0
20260506234638 64 69 5.0 14.0 0.00 0.02 0.00 41 1015.8
20260506234136 65 59 5.0 15.0 0.00 0.02 0.00 40 1015.8
20260506233636 65 87 5.0 15.0 0.00 0.02 0.00 40 1015.6
20260506233136 65 77 4.0 12.0 0.00 0.02 0.00 40 1015.6
20260506232635 65 105 4.0 10.0 0.00 0.02 0.00 40 1015.6
20260506232135 65 116 4.0 12.0 0.00 0.02 0.00 40 1015.9
20260506231636 64 94 4.0 12.0 0.00 0.02 0.00 40 1016.0
20260506231136 65 61 4.0 14.0 0.00 0.02 0.00 40 1015.8
20260506230635 65 112 4.0 14.0 0.00 0.02 0.00 40 1015.8
20260506230135 65 72 4.0 10.0 0.00 0.02 0.00 39 1015.8
20260506225635 65 33 4.0 10.0 0.00 0.02 0.00 39 1015.6
20260506225135 65 57 3.0 7.0 0.00 0.02 0.00 39 1015.8
20260506224635 66 74 3.0 8.0 0.00 0.02 0.00 39 1015.5
20260506224140 66 62 3.0 7.0 0.00 0.02 0.00 38 1015.4
20260506224135 66 78 3.0 8.0 0.00 0.02 0.00 38 1015.4
20260506223748 66 68 3.0 7.0 0.00 0.02 0.00 38 1015.5
20260506222636 66 70 3.0 9.0 0.00 0.02 0.00 38 1015.5
20260506222135 66 76 4.0 12.0 0.00 0.02 0.00 37 1015.5
20260506221639 68 99 3.0 10.0 0.00 0.02 0.00 36 1015.6
20260506221635 67 53 4.0 12.0 0.00 0.02 0.00 36 1015.6
20260506220638 69 110 2.0 10.0 0.00 0.02 0.00 35 1015.6
20260506220633 69 47 3.0 10.0 0.00 0.02 0.00 34 1015.6
20260506215635 69 67 2.0 9.0 0.00 0.02 0.00 34 1015.5
20260506215133 69 112 2.0 8.0 0.00 0.02 0.00 34 1015.6
20260506214631 69 98 2.0 7.0 0.00 0.02 0.00 34 1015.6
20260506214132 69 113 2.0 6.0 0.00 0.02 0.00 35 1015.6
20260506213633 69 89 2.0 10.0 0.00 0.02 0.00 35 1015.8
20260506213131 69 68 2.0 10.0 0.00 0.02 0.00 35 1015.8
20260506212635 69 65 2.0 9.0 0.00 0.02 0.00 35 1016.0
20260506212631 69 26 2.0 8.0 0.00 0.02 0.00 36 1015.9
20260506211636 68 28 2.0 6.0 0.00 0.02 0.00 37 1016.1
20260506211632 68 130 2.0 9.0 0.00 0.02 0.00 36 1016.1
20260506210637 68 111 2.0 6.0 0.00 0.02 0.00 36 1016.2
20260506210632 68 94 2.0 6.0 0.00 0.02 0.00 36 1016.2
20260506210130 68 355 2.0 4.0 0.00 0.02 0.00 36 1016.1
20260506205130 68 54 2.0 6.0 0.00 0.02 0.00 35 1016.2
20260506204629 69 75 2.0 6.0 0.00 0.02 0.00 36 1016.2
20260506204129 69 128 2.0 8.0 0.00 0.02 0.00 36 1016.3
20260506203629 69 185 3.0 8.0 0.00 0.02 0.00 35 1016.3
20260506203128 68 123 3.0 7.0 0.00 0.02 0.00 37 1016.4
20260506202628 67 119 3.0 8.0 0.00 0.02 0.00 37 1016.4
20260506202135 67 137 3.0 9.0 0.00 0.02 0.00 37 1016.5
20260506202129 68 171 3.0 9.0 0.00 0.02 0.00 37 1016.5
20260506201126 67 125 2.0 7.0 0.00 0.02 0.00 37 1016.5
20260506200626 67 121 1.0 7.0 0.00 0.02 0.00 38 1016.6
20260506200129 66 155 3.0 10.0 0.00 0.02 0.00 38 1016.6
20260506200124 67 43 3.0 10.0 0.00 0.02 0.00 38 1016.6
20260506195125 66 75 2.0 8.0 0.00 0.02 0.00 39 1016.6
20260506194625 66 65 2.0 7.0 0.00 0.02 0.00 39 1016.8
20260506194126 65 5 3.0 8.0 0.00 0.02 0.00 39 1017.0
20260506193625 66 161 3.0 8.0 0.00 0.02 0.00 39 1016.8
20260506193125 65 51 3.0 8.0 0.00 0.02 0.00 40 1016.8
20260506192625 65 163 3.0 8.0 0.00 0.02 0.00 38 1017.0
20260506192123 66 108 3.0 9.0 0.00 0.02 0.00 40 1017.1
20260506191623 65 119 2.0 9.0 0.00 0.02 0.00 40 1017.1
20260506191124 64 180 2.0 7.0 0.00 0.02 0.00 42 1017.3
20260506190622 64 107 3.0 7.0 0.00 0.02 0.00 40 1017.3
20260506190121 65 41 2.0 6.0 0.00 0.02 0.00 40 1017.4
20260506185618 66 126 1.0 7.0 0.00 0.02 0.00 39 1017.5
20260506185119 66 224 1.0 7.0 0.00 0.02 0.00 41 1017.5
20260506184620 64 113 2.0 9.0 0.00 0.02 0.00 42 1017.7
20260506184117 63 99 3.0 9.0 0.00 0.02 0.00 43 1017.9
20260506183621 64 144 2.0 9.0 0.00 0.02 0.00 43 1018.0
20260506183617 64 233 3.0 9.0 0.00 0.02 0.00 42 1018.0
20260506182622 63 101 2.0 8.0 0.00 0.02 0.00 44 1018.3
20260506182618 63 115 2.0 8.0 0.00 0.02 0.00 44 1018.0
20260506182229 62 88 2.0 6.0 0.00 0.02 0.00 45 1018.2
20260506181117 63 109 2.0 7.0 0.00 0.02 0.00 44 1018.2
20260506180623 62 180 2.0 8.0 0.00 0.02 0.00 48 1018.6
20260506180618 62 57 2.0 7.0 0.00 0.02 0.00 46 1018.2
20260506180117 62 104 2.0 7.0 0.00 0.02 0.00 47 1018.2
20260506175721 62 199 2.0 8.0 0.00 0.02 0.00 48 1018.4
20260506174619 60 81 1.0 7.0 0.00 0.02 0.00 51 1018.7
20260506174615 61 76 1.0 5.0 0.00 0.02 0.00 49 1018.6
20260506173613 59 82 2.0 7.0 0.00 0.02 0.00 53 1018.6
20260506173110 59 248 3.0 9.0 0.00 0.02 0.00 51 1019.0
20260506172610 59 180 3.0 9.0 0.00 0.02 0.00 50 1019.0
20260506172110 60 158 2.0 10.0 0.00 0.02 0.00 50 1018.7
20260506171610 60 89 2.0 10.0 0.00 0.02 0.00 51 1018.8
20260506171110 59 109 2.0 8.0 0.00 0.02 0.00 52 1018.9
20260506170616 58 141 1.0 6.0 0.00 0.02 0.00 54 1018.9
20260506170612 58 118 2.0 5.0 0.00 0.02 0.00 52 1018.8